Valentine, NE

9:44 PM CDT on June 27, 2017 (GMT -0500)
Miller Field

Weather History for KVTN - February, 2014

Change the Weather History Date:

Monday, February 24, 2014

  Actual Average Record
Temperature  
Mean Temperature 13 °F 30 °F  
Max Temperature 26 °F 43 °F 74 °F (1995)
Min Temperature 0 °F 17 °F -17 °F (2003)
Degree Days  
Heating Degree Days 52 35  
Month to date heating degree days 1065 918  
Since 1 July heating degree days 5265 5096  
Cooling Degree Days 0 0  
Month to date cooling degree days 0 0  
Year to date cooling degree days 0 0  
Moisture  
Dew Point 11 °F    
Average Humidity 80    
Maximum Humidity 88    
Minimum Humidity 72    
Precipitation  
Precipitation 0.07 in 0.03 in 0.34 in (1934)
Month to date precipitation 0.53 0.39  
Year to date precipitation 0.57 0.65  
Snow  
Snow 1.00 in 0.20 in 5.60 in (1934)
Month to date snowfall 5.5 4.7  
Since 1 July snowfall 25.0 21.2  
Snow Depth 1.00 in    
Sea Level Pressure  
Sea Level Pressure 30.24 in    
Wind  
Wind Speed 12 mph (NE)    
Max Wind Speed 29 mph    
Max Gust Speed 37 mph    
Visibility 4 miles    
Events Fog , Snow    
T = Trace of Precipitation, MM = Missing Value Source: NWS Daily Summary

Daily Weather History Graph

Daily Weather History Graph

Search for Another Location

Airport or City:

Trip Planner

Search our weather history database for the weather conditions in past years. The results will help you decide how hot, cold, wet, or windy it might be!

Date:

Astronomy

Feb. 24, 2014 Rise Set
Actual Time 7:25 AM CST 6:25 PM CST
Civil Twilight 6:57 AM CST 6:54 PM CST
Nautical Twilight 6:24 AM CST 7:26 PM CST
Astronomical Twilight 5:51 AM CST 7:59 PM CST
Moon 3:30 AM CST (2/24) 1:23 PM CST (2/24)
Length of Visible Light 11h 56m
Length of Day
10h 59m
Waning Crescent, 28% of the Moon is Illuminated
Feb 24
Waning Crescent
Mar 1
New
Mar 8
First Quarter
Mar 16
Full
Mar 23
Last Quarter

Hourly Weather History & Observations

Time (CST) Temp. Windchill Dew Point Humidity Pressure Visibility Wind Dir Wind Speed Gust Speed Precip Events Conditions
12:52 AM 18.0 °F 7.7 °F 12.9 °F 81% 30.35 in 10.0 mi East 8.1 mph - N/A   Overcast
1:24 AM 17.6 °F 7.3 °F 12.2 °F 79% 30.22 in 1.8 mi ESE 8.1 mph - 0.00 in Snow Light Snow
1:31 AM 17.6 °F 7.3 °F 14.0 °F 86% 30.22 in 0.8 mi SE 8.1 mph - 0.00 in Snow Light Snow
1:52 AM 18.0 °F 9.8 °F 14.0 °F 84% 30.33 in 0.8 mi ESE 5.8 mph - 0.01 in Snow Light Snow
1:56 AM 17.6 °F 8.2 °F 14.0 °F 86% 30.21 in 1.0 mi East 6.9 mph - 0.01 in Snow Light Snow
2:05 AM 17.6 °F 8.2 °F 14.0 °F 86% 30.20 in 1.8 mi East 6.9 mph - 0.01 in Snow Light Snow
2:12 AM 17.6 °F 7.3 °F 14.0 °F 86% 30.20 in 2.5 mi ESE 8.1 mph - 0.01 in Snow Light Snow
2:20 AM 17.6 °F 5.7 °F 12.2 °F 79% 30.19 in 3.0 mi ESE 10.4 mph - 0.01 in Snow Light Snow
2:41 AM 17.6 °F 6.4 °F 12.2 °F 79% 30.18 in 2.5 mi ESE 9.2 mph - 0.01 in Snow Light Snow
2:52 AM 18.0 °F 7.7 °F 12.9 °F 81% 30.30 in 2.0 mi ESE 8.1 mph - 0.01 in Snow Light Snow
3:04 AM 17.6 °F 5.7 °F 12.2 °F 79% 30.18 in 4.0 mi ESE 10.4 mph - 0.00 in Snow Light Snow
3:52 AM 17.1 °F 6.6 °F 12.9 °F 84% 30.29 in 6.0 mi ESE 8.1 mph - 0.00 in   Overcast
4:52 AM 17.1 °F 3.6 °F 12.9 °F 84% 30.26 in 5.0 mi ESE 12.7 mph - 0.00 in   Overcast
5:12 AM 17.6 °F 7.3 °F 12.2 °F 79% 30.15 in 6.0 mi ESE 8.1 mph - N/A   Overcast
5:52 AM 17.1 °F 5.0 °F 14.0 °F 88% 30.25 in 4.0 mi ESE 10.4 mph - N/A   Overcast
6:13 AM 17.6 °F 3.7 °F 14.0 °F 86% 30.13 in 6.0 mi ESE 13.8 mph - N/A   Overcast
6:52 AM 17.1 °F 3.6 °F 14.0 °F 88% 30.24 in 4.0 mi SE 12.7 mph - N/A   Overcast
7:05 AM 17.6 °F 3.2 °F 14.0 °F 86% 30.12 in 4.0 mi ESE 15.0 mph - N/A   Overcast
7:52 AM 17.1 °F 3.6 °F 14.0 °F 88% 30.23 in 4.0 mi ESE 12.7 mph - N/A   Overcast
8:19 AM 17.6 °F 3.2 °F 14.0 °F 86% 30.09 in 2.5 mi SE 15.0 mph - 0.00 in Snow Light Snow
8:52 AM 18.0 °F 4.8 °F 15.1 °F 88% 30.20 in 2.0 mi SE 12.7 mph - 0.01 in Snow Light Snow
9:18 AM 19.4 °F 5.5 °F 15.8 °F 86% 30.08 in 3.0 mi SE 15.0 mph 24.2 mph 0.00 in   Overcast
9:38 AM 19.4 °F 4.1 °F 15.8 °F 86% 30.07 in 5.0 mi SE 18.4 mph 25.3 mph 0.00 in   Overcast
9:52 AM 19.9 °F 4.8 °F 16.0 °F 85% 30.19 in 6.0 mi SSE 18.4 mph 26.5 mph 0.00 in   Overcast
10:04 AM 19.4 °F 3.2 °F 15.8 °F 86% 30.05 in 5.0 mi SSE 20.7 mph 26.5 mph 0.00 in Snow Light Snow
10:52 AM 19.9 °F 4.8 °F 16.0 °F 85% 30.18 in 5.0 mi South 18.4 mph 28.8 mph 0.00 in   Overcast
11:52 AM 21.0 °F 9.3 °F 18.0 °F 88% 30.18 in 4.0 mi South 11.5 mph - N/A   Overcast
12:52 PM 23.0 °F 13.1 °F 18.0 °F 81% 30.18 in 7.0 mi SSW 9.2 mph - N/A   Overcast
1:52 PM 23.0 °F 13.1 °F 19.9 °F 88% 30.18 in 4.0 mi SSW 9.2 mph - N/A   Overcast
2:04 PM 23.0 °F 15.8 °F 19.4 °F 86% 30.05 in 2.0 mi SSW 5.8 mph - 0.00 in Snow Light Snow
2:20 PM 24.8 °F 15.3 °F 19.4 °F 80% 30.07 in 1.5 mi SW 9.2 mph - 0.00 in Snow Light Snow
2:41 PM 24.8 °F 16.1 °F 21.2 °F 86% 30.06 in 1.0 mi SW 8.1 mph - 0.00 in Snow Light Snow
2:46 PM 24.8 °F 16.1 °F 19.4 °F 80% 30.07 in 0.5 mi SW 8.1 mph - 0.01 in Snow Snow
2:52 PM 25.0 °F 17.1 °F 21.0 °F 85% 30.18 in 0.5 mi WSW 6.9 mph - 0.01 in Fog , Snow Light Snow
3:14 PM 26.6 °F 19.1 °F 21.2 °F 80% 30.08 in 0.5 mi West 6.9 mph - 0.01 in Fog , Snow Snow
3:48 PM 26.6 °F 17.5 °F 21.2 °F 80% 30.10 in 0.8 mi WNW 9.2 mph - 0.03 in Snow Light Snow
3:52 PM 26.1 °F 16.8 °F 21.9 °F 84% 30.21 in 0.8 mi WNW 9.2 mph - 0.03 in Snow Light Snow
4:00 PM 26.6 °F 17.5 °F 21.2 °F 80% 30.10 in 1.0 mi WNW 9.2 mph - 0.00 in Snow Light Snow
4:09 PM 26.6 °F 16.2 °F 21.2 °F 80% 30.11 in 1.5 mi NW 11.5 mph - 0.00 in Snow Light Snow
4:22 PM 21.2 °F 3.5 °F 15.8 °F 80% 30.12 in 0.2 mi NNW 27.6 mph 36.8 mph 0.00 in Snow Heavy Snow
4:28 PM 19.4 °F 0.8 °F 14.0 °F 80% 30.13 in 1.2 mi NNW 28.8 mph 34.5 mph 0.00 in Snow Light Snow
4:50 PM 17.6 °F -0.6 °F 10.4 °F 73% 30.17 in 3.0 mi North 25.3 mph 35.7 mph 0.00 in Snow Light Snow
4:51 PM 16.0 °F -1.7 °F 10.0 °F 77% 30.30 in 3.0 mi NNW 21.9 mph 35.7 mph 0.00 in   Overcast
5:17 PM 15.8 °F 0.3 °F 8.6 °F 73% 30.21 in 1.8 mi North 16.1 mph 28.8 mph 0.00 in Snow Light Snow
5:21 PM 14.0 °F -5.1 °F 8.6 °F 79% 30.22 in 1.0 mi NNW 24.2 mph 32.2 mph 0.00 in Snow Light Snow
5:31 PM 10.4 °F -9.1 °F 5.0 °F 79% 30.24 in 2.0 mi NNW 21.9 mph 35.7 mph 0.00 in Snow Light Snow
5:40 PM 10.4 °F -9.5 °F 3.2 °F 73% 30.24 in 4.0 mi NNW 23.0 mph 33.4 mph 0.00 in Snow Light Snow
5:52 PM 10.0 °F -8.1 °F 3.9 °F 76% 30.41 in 2.5 mi North 18.4 mph 29.9 mph 0.00 in Snow Light Snow
6:07 PM 10.4 °F -7.7 °F 3.2 °F 73% 30.27 in 4.0 mi NNW 18.4 mph 28.8 mph 0.00 in   Haze
6:15 PM 10.4 °F -8.6 °F 3.2 °F 73% 30.29 in 1.8 mi North 20.7 mph 25.3 mph 0.00 in Snow Light Snow
6:26 PM 8.6 °F -9.5 °F 1.4 °F 73% 30.29 in 3.0 mi NNW 17.3 mph 31.1 mph 0.00 in Snow Light Snow
6:41 PM 8.6 °F -11.0 °F 1.4 °F 73% 30.31 in 5.0 mi NNW 20.7 mph 27.6 mph 0.00 in Snow Light Snow
6:52 PM 8.1 °F -9.0 °F 1.0 °F 73% 30.47 in 5.0 mi North 15.0 mph 28.8 mph 0.00 in   Haze
7:10 PM 6.8 °F -11.8 °F -0.4 °F 72% 30.32 in 8.0 mi NNW 17.3 mph - N/A   Overcast
7:38 PM 6.8 °F -12.4 °F -0.4 °F 72% 30.34 in 6.0 mi NNW 18.4 mph 25.3 mph 0.00 in Snow Light Snow
7:52 PM 6.1 °F -14.8 °F -0.9 °F 73% 30.50 in 10.0 mi NNW 21.9 mph 28.8 mph 0.00 in   Overcast
8:19 PM 5.0 °F -15.2 °F -0.4 °F 78% 30.34 in 10.0 mi North 19.6 mph 31.1 mph N/A   Overcast
8:49 PM 5.0 °F -13.0 °F -2.2 °F 72% 30.36 in 10.0 mi North 15.0 mph 23.0 mph N/A   Scattered Clouds
8:52 PM 5.0 °F -13.0 °F -2.0 °F 73% 30.53 in 10.0 mi North 15.0 mph 23.0 mph N/A   Mostly Cloudy
9:52 PM 3.9 °F -10.4 °F -2.0 °F 76% 30.54 in 5.0 mi NNW 9.2 mph - N/A   Haze
10:52 PM 3.0 °F -14.1 °F -4.0 °F 73% 30.53 in 10.0 mi NNW 12.7 mph - N/A   Mostly Cloudy
11:02 PM 3.2 °F -11.3 °F -4.0 °F 72% 30.38 in 10.0 mi North 9.2 mph - N/A   Scattered Clouds
11:52 PM 1.0 °F -10.3 °F -5.1 °F 75% 30.54 in 10.0 mi NW 5.8 mph - N/A   Clear